TimeEDT,TemperatureF,Dew PointF,Humidity,Sea Level PressureIn,VisibilityMPH,Wind Direction,Wind SpeedMPH,Gust SpeedMPH,PrecipitationIn,Events,Conditions,WindDirDegrees,DateUTC
12:54 AM,61.0,60.1,97,30.25,10.0,Calm,Calm,-,N/A,,Clear,0,2013-07-13 04:54:00
1:54 AM,59.0,57.9,96,30.26,10.0,Calm,Calm,-,N/A,,Clear,0,2013-07-13 05:54:00
2:54 AM,57.0,57.0,100,30.27,8.0,Calm,Calm,-,N/A,,Clear,0,2013-07-13 06:54:00
3:20 AM,57.2,57.2,100,30.27,9.0,Calm,Calm,-,N/A,,Partly Cloudy,0,2013-07-13 07:20:00
3:52 AM,55.4,55.4,100,30.28,3.0,Calm,Calm,-,N/A,,Mostly Cloudy,0,2013-07-13 07:52:00
3:54 AM,55.9,55.9,100,30.28,2.5,Calm,Calm,-,N/A,,Mostly Cloudy,0,2013-07-13 07:54:00
4:14 AM,55.4,55.4,100,30.29,1.2,Calm,Calm,-,N/A,,Overcast,0,2013-07-13 08:14:00
4:24 AM,55.4,55.4,100,30.28,2.0,Calm,Calm,-,N/A,,Overcast,0,2013-07-13 08:24:00
4:50 AM,55.4,55.4,100,30.28,3.0,Calm,Calm,-,N/A,,Mostly Cloudy,0,2013-07-13 08:50:00
4:54 AM,55.0,55.0,100,30.27,7.0,Calm,Calm,-,N/A,,Mostly Cloudy,0,2013-07-13 08:54:00
5:01 AM,55.4,55.4,100,30.28,2.0,Calm,Calm,-,N/A,,Scattered Clouds,0,2013-07-13 09:01:00
5:03 AM,55.4,55.4,100,30.28,1.2,Calm,Calm,-,N/A,,Mostly Cloudy,0,2013-07-13 09:03:00
5:13 AM,55.4,55.4,100,30.28,1.5,Calm,Calm,-,N/A,,Scattered Clouds,0,2013-07-13 09:13:00
5:17 AM,53.6,53.6,100,30.28,1.2,Calm,Calm,-,N/A,,Mostly Cloudy,0,2013-07-13 09:17:00
5:26 AM,55.4,53.6,94,30.28,0.5,Calm,Calm,-,N/A,Fog,Fog,0,2013-07-13 09:26:00
5:31 AM,55.4,55.4,100,30.28,1.8,Calm,Calm,-,N/A,,Overcast,0,2013-07-13 09:31:00
5:33 AM,55.4,55.4,100,30.28,3.0,Calm,Calm,-,N/A,,Overcast,0,2013-07-13 09:33:00
5:45 AM,55.4,55.4,100,30.28,1.5,Calm,Calm,-,N/A,,Overcast,0,2013-07-13 09:45:00
5:50 AM,55.4,55.4,100,30.28,0.8,Calm,Calm,-,N/A,,Mist,0,2013-07-13 09:50:00
5:54 AM,55.9,55.0,97,30.28,0.8,Calm,Calm,-,N/A,,Mist,0,2013-07-13 09:54:00
6:09 AM,57.2,55.4,94,30.29,1.0,Calm,Calm,-,N/A,,Mist,0,2013-07-13 10:09:00
6:17 AM,57.2,57.2,100,30.29,2.0,Calm,Calm,-,N/A,,Mostly Cloudy,0,2013-07-13 10:17:00
6:22 AM,57.2,57.2,100,30.30,5.0,Calm,Calm,-,N/A,,Scattered Clouds,0,2013-07-13 10:22:00
6:54 AM,61.0,59.0,93,30.30,10.0,Calm,Calm,-,N/A,,Clear,0,2013-07-13 10:54:00
7:54 AM,66.9,63.0,87,30.32,10.0,Calm,Calm,-,N/A,,Clear,0,2013-07-13 11:54:00
8:54 AM,71.1,64.0,78,30.32,10.0,Calm,Calm,-,N/A,,Clear,0,2013-07-13 12:54:00
9:54 AM,75.9,63.0,64,30.33,10.0,Calm,Calm,-,N/A,,Clear,0,2013-07-13 13:54:00
10:54 AM,78.1,61.0,56,30.33,10.0,Calm,Calm,-,N/A,,Clear,0,2013-07-13 14:54:00
11:54 AM,80.1,61.0,52,30.32,10.0,Variable,3.5,-,N/A,,Mostly Cloudy,0,2013-07-13 15:54:00
12:54 PM,82.0,57.9,44,30.31,10.0,Variable,3.5,-,N/A,,Clear,0,2013-07-13 16:54:00
1:54 PM,82.9,63.0,51,30.30,10.0,South,10.4,-,N/A,,Partly Cloudy,170,2013-07-13 17:54:00
2:54 PM,81.0,62.1,52,30.31,10.0,SSE,4.6,-,N/A,,Scattered Clouds,160,2013-07-13 18:54:00
3:54 PM,80.1,64.0,58,30.30,10.0,SSE,3.5,-,N/A,,Mostly Cloudy,150,2013-07-13 19:54:00
4:54 PM,79.0,64.0,60,30.30,10.0,South,5.8,-,N/A,,Mostly Cloudy,180,2013-07-13 20:54:00
5:54 PM,78.1,63.0,60,30.29,10.0,SSW,4.6,-,N/A,,Clear,200,2013-07-13 21:54:00
6:54 PM,78.1,63.0,60,30.29,10.0,South,4.6,-,N/A,,Clear,180,2013-07-13 22:54:00
7:54 PM,75.0,64.9,71,30.29,10.0,SW,3.5,-,N/A,,Partly Cloudy,220,2013-07-13 23:54:00
8:54 PM,71.1,66.0,84,30.30,10.0,South,3.5,-,N/A,,Scattered Clouds,180,2013-07-14 00:54:00
9:54 PM,69.1,64.9,87,30.30,10.0,Calm,Calm,-,N/A,,Clear,0,2013-07-14 01:54:00
10:54 PM,66.0,64.0,93,30.30,10.0,Calm,Calm,-,N/A,,Clear,0,2013-07-14 02:54:00
11:54 PM,64.9,64.0,97,30.30,10.0,Calm,Calm,-,N/A,,Clear,0,2013-07-14 03:54:00